Regional Weather Roundup
Issued by NWS Upton, NY

Current Version | Previous Version | Graphics & Text | Print | Product List | Glossary Off
Versions: 1 2 3 4 5 6 7 8 9 10 11 12 13 14 15 16 17 18 19 20 21 22 23 24 25 26 27 28 29 30 31 32 33 34 35 36 37 38 39 40 41 42 43 44 45 46 47 48 49 50
000 ASUS41 KOKX 201508 RWROKX REGIONAL WEATHER ROUNDUP NATIONAL WEATHER SERVICE NEW YORK NY 1000 AM EST MON FEB 20 2017 NOTE: "FAIR" INDICATES FEW OR NO CLOUDS BELOW 12,000 FEET WITH NO SIGNIFICANT WEATHER AND/OR OBSTRUCTIONS TO VISIBILITY. NYZ071-072-176-178-NJZ106-104-201600- NEW YORK CITY METRO AREA CITY SKY/WX TMP DP RH WIND PRES REMARKS Central Park SUNNY 47 30 51 NW9 30.21R Wall St Helipt NOT AVBL LaGuardia APRT SUNNY 48 32 53 NW10 30.19R Kennedy INTL MOSUNNY 50 33 52 NW12 30.20R Breezy Point N/A 46 N/A N/A NW12G17 N/A Newark/Liberty MOSUNNY 50 29 44 NW13 30.20R Teterboro SUNNY 50 30 46 N10 30.19R $$ NYZ177-179-078>081-201600- LONG ISLAND NEW YORK CITY SKY/WX TMP DP RH WIND PRES REMARKS Jones Beach N/A 46 N/A N/A NW13 N/A Matinecock PT N/A 46 N/A N/A W7 N/A Farmingdale SUNNY 49 32 52 N9 30.17R MacArthur/ISP SUNNY 48 32 53 N14 30.17R Shirley SUNNY 47 31 53 NW13 30.17R Westhampton SUNNY 48 31 51 NW14 30.17R Southampton NOT AVBL Bridgehampton NOT AVBL East Hampton N/A 46 31 55 N13 30.14R Montauk N/A 45 34 65 N7 30.15R $$ NYZ052-065-067-201600- HUDSON VALLEY CITY SKY/WX TMP DP RH WIND PRES REMARKS White Plains MOSUNNY 46 30 53 W8 30.17R Newburgh SUNNY 45 32 61 CALM 30.19R Montgomery SUNNY 47 25 42 N7 30.17R Poughkeepsie SUNNY 42 27 55 N8 30.19R Albany MOSUNNY 38 23 55 NW13 30.22R WCI 30 $$ NJZ001-105-106-008-010-013-015-019>022-104-201600- NEW JERSEY CITY SKY/WX TMP DP RH WIND PRES REMARKS Newark/Liberty MOSUNNY 50 29 44 NW13 30.20R Teterboro SUNNY 50 30 46 N10 30.19R Caldwell SUNNY 50 27 40 N7 30.20R Somerville SUNNY 48 28 46 N13G21 30.20S Linden NOT AVBL Sussex SUNNY 45 27 49 VRB5 30.20R Andover N/A 44 28 53 N9G22 30.21R Trenton SUNNY 50 31 48 N13G18 30.22R Millville SUNNY 54 34 46 NW15 30.21S Atlantic City SUNNY 54 31 41 N21 30.20R Wrightstown SUNNY 50 32 49 NW15 30.19R Toms River SUNNY 49 31 49 NW14G23 30.20S Belmar SUNNY 50 30 46 NW16G24 30.20R $$ PAZ047>061-062-071-201600- EASTERN PENNSYLVANIA CITY SKY/WX TMP DP RH WIND PRES REMARKS Philadelphia MOSUNNY 52 31 44 N12 30.24R Allentown MOSUNNY 47 30 51 NW10 30.24R Scranton MOSUNNY 40 29 64 N15 30.24R WCI 32 $$ CTZ002-004>006-009-010-012-RIZ004-006-007-MAZ004-011-015-201600- SOUTHERN NEW ENGLAND IN CT CITY SKY/WX TMP DP RH WIND PRES REMARKS Bradley INTL MOSUNNY 42 25 50 N7 30.16R Hartford MOSUNNY 43 29 57 N10 30.16R Danbury SUNNY 42 25 50 N13G21 30.19R Wtrbury/Oxford MOSUNNY 41 25 52 N15 30.17R Bridgeport SUNNY 48 29 47 N12 30.17R Meriden SUNNY 45 27 49 NW8 30.17R New Haven MOSUNNY 45 28 51 NW8 30.16R Chester PTSUNNY 43 28 56 NW10 30.14R Groton MOSUNNY 45 30 55 N10 30.14R Wilimantic MOSUNNY 44 26 49 N8 30.15R IN RI CITY SKY/WX TMP DP RH WIND PRES REMARKS Providence MOSUNNY 44 25 47 N15 30.14S Block Island MOSUNNY 45 31 58 N12 30.13S Westerly MOSUNNY 47 25 42 N9 30.14R IN MA CITY SKY/WX TMP DP RH WIND PRES REMARKS Boston MOSUNNY 41 23 48 NW12 30.15R Worcester SUNNY 36 17 46 N7G18 30.12R WCI 30 Westfield SUNNY 40 24 53 NE6 30.15R Provincetown CLOUDY 39 28 64 N13 30.13R WCI 31 Nantucket SUNNY 45 30 55 N17 30.09S $$ ANZ330-335-338-340-345-350-353-355-201600- COASTAL MARINE OBSERVATIONS STATION/POSITION TIME SKY/WX TEMP WIND PRES VSBY WAVE AIR SEA DIR/SP/G HT/PER (UTC) (F) (DEG/KT/KT) (MB) (MI) (FT/S) NY HARB ENTRANCE 1350 44 42 310/ 12/ 14 1021.2 2/ 6 20 S FIRE ISLAND 1450 41 40 320/ 8/ 10 1021.4 2/ 6 GREAT SOUTH BAY NOT AVBL 23 SSW MONTAUK P 1350 43 43 1020.4 2/ 7 15 E BARNEGAT LI 1430 43 N/A 2/ 9 HUDSON CANYON 1350 50 1020.4 3/ 3 KINGS POINT 1442 42 38 1022.1 EXECUTION ROCKS NOT AVBL CENTRAL LI SOUND 1430 42 320/ 12/ 14 N/A 1/ 2 EASTERN LI SOUND NOT AVBL ROBBINS REEF 1448 46 320/ 15/ 19 1022.5 $$ >>>>>>>>>>>>>>>>>>>>>>>>>>>> KEY <<<<<<<<<<<<<<<<<<<<<<<<<<< > < > SKY/WX - Sky Condition/Present Weather < > TMP - Temperature in Fahrenheit < > DP - Dew Point in Fahrenheit < > RH - Relative Humidity in Percent < > WIND - Direction (from) and Speed in MPH < > PRES - Mean Sea Level Pressure (inches of Hg) < > WCI - Wind Chill Index < > VSB - VISIBILITY IN MILES < > HX - HEAT INDEX < > TC - TEMPERATURE IN CELSIUS < > VRB - VARIABLE WIND DIRECTION < > < >>>>>>>>>>>>>>>>>>>>>>>>>>>> KEY <<<<<<<<<<<<<<<<<<<<<<<<<<<

USA.gov is the U.S. government's official web portal to all federal, state and local government web resources and services.